www.pogodaiklimat.ru

Погода и климат >> Архив погоды >> Аргентина >> Ла-Риоха


ПОГОДА в Ла-Риохе

  • Прогноз погоды в Ла-Риохе
  • Монитор погоды в Ла-Риохе

АРХИВ ПОГОДЫ в Ла-Риохе

Время (UTC), дата Ветер
(напр.,м/с)
 
Видим.   Явления Облачность Т
(С)
Тd
(С)
f
(%)
Тe
(С)
Тes
(С)
Комфортность P
(гПа)
Po
(гПа)
Тmin
(С)
Tmax
(С)
R
(мм)
R24
(мм)
S
(см)
03 10.06 З 2 20 км 6/0
[Ci]
+9.8 +6.7 81 +8 +8 1011.3 961.3
06 10.06 З 1 20 км 3/0
[Ci]
+8.0 +6.3 89 +7 +7 1010.6 960.9
09 10.06 ЮЗ 1 20 км ясно +6.4 +4.9 90 +5 +5 1010.3 960.5
12 10.06 З 1 20 км 1/0
[Ci sp]
+5.2 +4.3 94 +4 +4 1012.2 961.2 +3.9 +11.2
15 10.06 Ю 1 20 км 1/0
[Ci sp]
+17.0 +9.2 60 +18 +26 1012.0 961.8
18 10.06 штиль 0 20 км 1/0
[Ci sp]
+21.2 +9.2 46 +22 +31 комфорт 1010.8 960.9
21 10.06 штиль 0 20 км 5/0
[Ci]
+21.2 +9.7 48 +23 +23 комфорт 1010.6 960.6
00 11.06 штиль 0 20 км 4/0
[Ci]
+13.0 +8.3 73 +13 +13 1014.5 963.5 +5.2 +22.0
03 11.06 ЮЗ 2 20 км 5/0
[Ci]
+12.0 +8.3 78 +11 +11 1014.3 964.5
06 11.06 З 2 20 км 8/0
[Ac und]
+12.3 +9.2 81 +11 +11 1013.5 964.1
09 11.06 З 2 20 км 1/0
[Ac und]
+11.4 +8.0 80 +10 +10 1012.5 963.1
12 11.06 З 1 20 км 5/0
[Ci]
+8.4 +7.2 92 +8 +8 1013.6 963.2 +8.1 +13.0
15 11.06 СВ 3 20 км 5/0
[Cs]
+18.8 +9.0 53 +20 +25 1011.3 961.8
18 11.06 З 1 20 км 3/0
[Cs]
+22.1 +11.3 50 +24 +31 комфорт 1005.3 956.1
21 11.06 ЮВ 1 20 км 3/0
[Cs]
+21.3 +10.2 49 +23 +23 комфорт 1004.2 955.0
00 12.06 ЮЗ 1 20 км ясно +14.2 +9.7 74 +15 +15 1006.4 956.2 +8.3 +23.5
03 12.06 штиль 0 20 км 3/0
[Ci sp]
+10.5 +8.9 90 +10 +10 1007.2 957.4
06 12.06 штиль 0 20 км 3/0
[Ci sp]
+10.0 +9.0 93 +9 +9 1006.9 957.4
09 12.06 штиль 0 20 км ясно +10.2 +9.4 95 +9 +9 1006.6 957.2
12 12.06 З 2 15 км 10/10 450 м
[Frnb]
+12.1 +11.0 93 +11 +11 1008.6 958.9 +7.5 +14.2
15 12.06 Ю 1 15 км дым 6/6 1500 м
[Sc]
+17.0 +12.3 74 +18 +21 1009.0 959.4
18 12.06 ЮВ 3 15 км дым 4/3 1200 м
[Cu hum Ci sp]
+20.8 +13.8 64 +24 +28 комфорт 1004.8 995.4
21 12.06 СВ 3 15 км дым 5/0
[Ac As Ci sp]
+20.2 +13.4 65 +23 +23 комфорт 1005.3 955.8
00 13.06 ЮЗ 1 20 км 10/0
[Ac As]
+17.0 +13.6 80 +18 +18 1008.4 958.6 +12.0 +22.4
03 13.06 штиль 0 20 км 10/10 1350 м
[Sc]
+16.4 +13.5 83 +16 +16 1009.7 960.2
06 13.06 штиль 0 20 км 6/6 1500 м
[Sc]
+15.3 +13.4 88 +15 +15 1008.3 959.0
09 13.06 штиль 0 20 км 3/3 1500 м
[Sc]
+10.9 +10.1 95 +10 +10 1007.8 958.2
12 13.06 З 1 20 км 4/4 1200 м
[Sc]
+8.6 +8.2 97 +8 +8 1009.1 959.0 +8.4 +17.0
15 13.06 Ю 2 15 км дым 4/4 1200 м
[Sc]
+18.4 +10.9 62 +20 +24 1008.1 959.1
18 13.06 Ю 3 20 км 6/6 1350 м
[Cu Sc]
+20.5 +11.2 55 +23 +25 комфорт 1005.9 956.8
21 13.06 ЮВ 3 20 км 6/6 1500 м
[Sc]
+19.1 +10.1 56 +20 +20 1008.2 958.5
00 14.06 ЮВ 3 20 км 10/10 1200 м
[Sc]
+16.5 +8.3 58 +16 +16 1013.1 962.8 +8.5 +21.6
03 14.06 ЮЗ 1 20 км 10/10 1500 м
[Sc]
+15.3 +6.8 57 +16 +16 1015.2 965.4
06 14.06 ЮВ 2 20 км 8/8 1500 м
[Sc]
+13.3 +8.0 70 +13 +13 1015.4 965.7
09 14.06 Ю 1 20 км ясно +11.3 +6.2 71 +11 +11 1015.9 965.8
12 14.06 штиль 0 10 км дымка 5/0
[Ac As]
+7.4 +5.7 89 +6 +7 1016.9 966.2 +5.7 +16.5
15 14.06 Ю 1 20 км 10/3 1200 м
[Sc Ac As]
+14.0 +6.8 62 +14 +16 1016.3 966.2
18 14.06 ЮВ 3 20 км 8/6 1200 м
[Sc Ac As]
+15.2 +7.9 62 +15 +16 1013.9 963.8
21 14.06 В 3 20 км 10/10 1200 м
[Sc]
+14.1 +8.1 67 +13 +13 1013.7 963.4
00 15.06 штиль 0 20 км 10/10 900 м
[Sc]
+12.5 +9.3 81 +12 +12 1016.4 965.4 +7.3 +16.5
03 15.06 штиль 0 15 км осадки на расстоянии 10/10 900 м
[Sc]
+11.6 +10.1 91 +11 +11 1016.8 966.2
06 15.06 штиль 0 12 км осадки на расстоянии {морось} 10/10 600 м
[Frnb]
+10.8 +10.0 95 +10 +10 1016.9 966.5 0.0
09 15.06 З 3 20 км 10/10 1350 м
[Sc]
+10.2 +7.4 83 +8 +8 1017.4 966.8
12 15.06 Ю 2 20 км 10/10 1350 м
[Sc]
+11.0 +4.6 65 +10 +10 1019.5 969.0 +10.2 +12.5 0.0
15 15.06 Ю 2 20 км 10/10 1500 м
[Sc]
+11.6 +2.7 54 +11 +11 1021.0 970.4
18 15.06 Ю 4 20 км 10/10 1050 м
[Sc]
+12.2 +2.1 50 +10 +10 1019.6 968.8
21 15.06 Ю 3 20 км 10/10 1050 м
[Sc]
+11.6 +1.6 50 +10 +10 1021.0 969.8
00 16.06 Ю 3 10 км слаб. морось 10/10 450 м
[Frnb]
+10.5 +2.1 56 +9 +9 1024.1 972.9 +10.4 +12.7 0.0
03 16.06 ЮЗ 1 20 км 10/10 1500 м
[Frnb]
+9.0 +2.6 64 +9 +9 1025.4 974.4
06 16.06 ЮЗ 2 20 км 10/10 1500 м
[Frnb]
+8.1 +0.9 60 +6 +6 1025.7 974.6 0.0
09 16.06 штиль 0 20 км 10/10 1500 м
[Sc]
+7.3 -0.1 59 +7 +7 1025.1 973.9
12 16.06 штиль 0 20 км 10/10 1500 м
[Sc]
+5.6 +2.3 79 +5 +5 1027.3 975.8 +5.6 +10.5 0.0
15 16.06 штиль 0 20 км 10/10 1500 м
[Sc]
+8.0 +0.8 60 +8 +8 1027.4 975.9
18 16.06 штиль 0 20 км 10/10 1500 м
[Sc]
+10.8 +1.9 54 +11 +11 1023.4 972.0
21 16.06 СЗ 3 20 км 10/10 1500 м
[Sc]
+10.8 +1.9 54 +9 +9 1023.0 971.6

 

Местоположение метеостанции Ла-Риоха (Аргентина): широта -29.38 долгота -66.81 высота над уровнем моря 429 м.

В архиве по умолчанию представлена погода в Ла-Риохе за последнюю неделю. Архивные данные за месяц целиком и за предыдущие месяцы, начиная с января 2011 года, Вы можете получить, выбрав интересующий диапазон дат из раскрывающегося списка и нажав кнопку "Ввод!".


*Определитесь, кто Вы:
робот инопланетянин человек

Внимание! Время в таблицах - всемирное. Для получения местного времени необходимо прибавить поправку, которая равна -3 ч.

Смотрите также архив погоды в соседних городах и на ближайших метеорологических станциях:

Погода в Чамикале (Аргентина) (120 км)
Погода в Сан-Фернандо-дель-Валье-де-Катамарке (Аргентина) (134 км)
Погода в Сан-Хуане (Аргентина) (272 км)
Погода в Сантьяго-дель-Эстеро (Аргентина) (304 км)
Погода в Вилла де Мария дель Рио Секо (Аргентина) (308 км)
Погода в Вилла Долорес (Аргентина) (328 км)
Погода в Сан-Мигель-де-Тукумане (Аргентина) (328 км)
Погода в Кордове (Аргентина) (329 км)
Погода в Пиларе (Аргентина) (378 км)
Погода в Викунье (Чили) (383 км)

Пояснения к столбцам:

Ветер - указаны скорость ветра в м/с - средняя за 10 мин, порывы в срок и между сроками (в фигурных скобках) и направление, откуда дует ветер: С - северный, СВ - северо-восточный, В - восточный, ЮВ - юго-восточный, Ю - южный, ЮЗ - юго-западный, З - западный, СЗ - северо-западный.
Видимость - горизонтальная дальность видимости в метрах или километрах. При видимости от 1 до 10 км при отсутствии осадков обычно наблюдается дымка, при ухудшении видимости до 1 км и менее - туман. В сухую погоду видимость может ухудшаться дымом, пылью или мглою.
Явления - указаны атмосферные явления, наблюдавшиеся в срок или в последний час перед сроком; фигурными скобками обозначены явления, наблюдавшиеся между сроками (за 1-3 часа до срока); квадратными скобками обозначены град или гололедные отложения с указанием их диаметра в мм.
Облачность - указаны через наклонную черту общая и нижняя облачность в баллах и высота нижней границы облаков в метрах; квадратными скобками обозначены формы облаков: Ci - перистые, Cs - перисто-слоистые, Cc - перисто-кучевые, Ac - высококучевые, As - высокослоистые, Sc - слоисто-кучевые, Ns - слоисто-дождевые, Cu - кучевые, Cb - кучево-дождевые. Подробнее классификацию облаков см. в Атласе облаков (PDF).
T - Температура воздуха - температура, измеренная на высоте 2 м над землей.
Td - Температура точки росы - температура, при понижении до которой содержащийся в воздухе водяной пар достигнет насыщения.
f - Относительная влажность воздуха - влажноcть воздуха, измеренная на высоте 2 м над землей.
Te - Эффективная температура - температура, которую ощущает одетый по сезону человек в тени. Характеристика душности погоды. При расчете учитывается влияние влажности воздуха и скорости ветра на теплоощущения человека.
Tes - Эффективная температура на солнце - температура, которую ощущает человек, с поправкой на солнечный нагрев. Характеристика знойности погоды. Зависит от высоты солнца над горизонтом, облачности и скорости ветра. Ночью, в пасмурную погоду, а также при ветре 12 м/с и более поправка равна нулю.
P - Атмосферное давление - приведенное к уровню моря атмосферное давление.
Po - Атмосферное давление - измеренное на уровне метеостанции атмосферное давление.
Tmin - Минимальная температура - минимум температуры воздуха на высоте 2 м над землей.
Tmax - Максимальная температура - максимум температуры воздуха на высоте 2 м над землей.
R - Количество осадков - Количество выпавших осадков за период времени, мм. При наведении курсора мыши на число - период времени, за который выпало указанное количество осадков.
R24 - Количество осадков - Количество выпавших осадков за 24 часа, мм.
S - Снежный покров - Высота снежного покрова, см. При наведении курсора мыши на число - состояние снежного покрова и степень покрытия местности в баллах.